Istanbul, Turkey

12:13 AM +03 on August 23, 2017 (GMT +0300)
Ataturk

Weather History for LTBA - October, 2011

Change the Weather History Date:

Wednesday, October 19, 2011

  Actual Average Record
Temperature  
Mean Temperature 52 °F -  
Max Temperature 60 °F 60 °F 76 °F (2012)
Min Temperature 45 °F 50 °F 46 °F (2005)
Degree Days  
Heating Degree Days 12    
Growing Degree Days 2 (Base 50)    
Moisture  
Dew Point 42 °F    
Average Humidity 62    
Maximum Humidity 72    
Minimum Humidity 44    
Precipitation  
Precipitation 0.00 in - - ()
Sea Level Pressure  
Sea Level Pressure 30.25 in    
Wind  
Wind Speed 12 mph ()    
Max Wind Speed 20 mph    
Max Gust Speed -    
Visibility 6.2 miles    
Events      
Averages and records for this station are not official NWS values.
T = Trace of Precipitation, MM = Missing Value Source: Averaged Metar Reports

Daily Weather History Graph

Daily Weather History Graph

Search for Another Location

Airport or City:

Trip Planner

Search our weather history database for the weather conditions in past years. The results will help you decide how hot, cold, wet, or windy it might be!

Date:

Astronomy

Oct. 19, 2011 Rise Set
Actual Time 7:19 AM EEST 6:18 PM EEST
Civil Twilight 6:52 AM EEST 6:46 PM EEST
Nautical Twilight 6:20 AM EEST 7:18 PM EEST
Astronomical Twilight 5:48 AM EEST 7:50 PM EEST
Moon 11:41 PM EEST (10/19) 1:39 PM EEST (10/19)
Length of Visible Light 11h 54m
Length of Day
10h 59m
Waning Gibbous, 58% of the Moon is Illuminated
Oct 19
Waning Gibbous
Oct 20
Last Quarter
Oct 26
New
Nov 2
First Quarter
Nov 10
Full

Hourly Weather History & Observations

Time (EEST) Temp. Dew Point Humidity Pressure Visibility Wind Dir Wind Speed Gust Speed Precip Events Conditions
12:20 AM 50.0 °F 39.2 °F 66% 30.24 in 6.2 mi SW 13.8 mph - N/A   Scattered Clouds
12:50 AM 50.0 °F 41.0 °F 71% 30.24 in 6.2 mi SW 12.7 mph - N/A   Scattered Clouds
1:20 AM 50.0 °F 41.0 °F 71% 30.24 in 6.2 mi SW 11.5 mph - N/A   Scattered Clouds
1:50 AM 50.0 °F 41.0 °F 71% 30.24 in 6.2 mi SW 13.8 mph - N/A   Scattered Clouds
2:20 AM 50.0 °F 41.0 °F 71% 30.24 in 6.2 mi SW 12.7 mph - N/A   Scattered Clouds
2:50 AM 51.8 °F 39.2 °F 62% 30.24 in 6.2 mi SW 12.7 mph - N/A   Scattered Clouds
3:00 AM 51 °F 39 °F 53% 30.27 in 6 mi SW 12.7 mph - -   Partly Cloudy
3:20 AM 50.0 °F 39.2 °F 66% 30.24 in 6.2 mi SW 12.7 mph - N/A   Scattered Clouds
3:50 AM 51.8 °F 39.2 °F 62% 30.24 in 6.2 mi SW 11.5 mph - N/A   Scattered Clouds
4:20 AM 51.8 °F 41.0 °F 67% 30.24 in 6.2 mi SW 12.7 mph - N/A   Scattered Clouds
4:50 AM 51.8 °F 41.0 °F 67% 30.24 in 6.2 mi SW 12.7 mph - N/A   Scattered Clouds
5:20 AM 51.8 °F 41.0 °F 67% 30.24 in 6.2 mi SW 13.8 mph - N/A   Scattered Clouds
5:50 AM 51.8 °F 41.0 °F 67% 30.24 in 6.2 mi SW 12.7 mph - N/A   Scattered Clouds
6:20 AM 51.8 °F 41.0 °F 67% 30.24 in 6.2 mi SSW 15.0 mph - N/A   Scattered Clouds
6:50 AM 51.8 °F 41.0 °F 67% 30.24 in 6.2 mi SSW 13.8 mph - N/A   Scattered Clouds
7:20 AM 50.0 °F 41.0 °F 71% 30.24 in 6.2 mi SSW 16.1 mph - N/A   Scattered Clouds
7:50 AM 50.0 °F 41.0 °F 71% 30.24 in 6.2 mi SSW 15.0 mph - N/A   Scattered Clouds
8:20 AM 51.8 °F 39.2 °F 62% 30.27 in 6.2 mi SSW 16.1 mph - N/A   Scattered Clouds
8:50 AM 51.8 °F 39.2 °F 62% 30.27 in 6.2 mi SSW 17.3 mph - N/A   Scattered Clouds
9:00 AM 51 °F 40 °F 57% 30.29 in 6 mi SSW 17.3 mph - -   Partly Cloudy
9:20 AM 51.8 °F 39.2 °F 62% 30.27 in 6.2 mi SSW 16.1 mph - N/A   Scattered Clouds
9:50 AM 53.6 °F 39.2 °F 58% 30.27 in 6.2 mi SSW 17.3 mph - N/A   Scattered Clouds
10:20 AM 55.4 °F 39.2 °F 54% 30.27 in 6.2 mi SSW 19.6 mph - N/A   Scattered Clouds
10:50 AM 55.4 °F 39.2 °F 54% 30.27 in 6.2 mi SSW 18.4 mph - N/A   Scattered Clouds
11:20 AM 55.4 °F 39.2 °F 54% 30.27 in 6.2 mi SSW 18.4 mph - N/A   Scattered Clouds
11:50 AM 55.4 °F 39.2 °F 54% 30.27 in 6.2 mi SSW 18.4 mph - N/A   Scattered Clouds
12:20 PM 57.2 °F 41.0 °F 55% 30.30 in 6.2 mi SSW 17.3 mph - N/A   Scattered Clouds
12:50 PM 57.2 °F 41.0 °F 55% 30.30 in 6.2 mi SSW 16.1 mph - N/A   Scattered Clouds
1:20 PM 57.2 °F 41.0 °F 55% 30.27 in 6.2 mi SSW 16.1 mph - N/A   Partly Cloudy
1:50 PM 59.0 °F 42.8 °F 55% 30.27 in 6.2 mi SSW 16.1 mph - N/A   Partly Cloudy
2:20 PM 59.0 °F 41.0 °F 51% 30.27 in 6.2 mi SSW 15.0 mph - N/A   Scattered Clouds
2:50 PM 59.0 °F 42.8 °F 55% 30.27 in 6.2 mi SSW 15.0 mph - N/A   Scattered Clouds
3:00 PM 59 °F 43 °F 44% 30.28 in 6 mi SSW 15.0 mph - -   Partly Cloudy
3:20 PM 59.0 °F 42.8 °F 55% 30.27 in 6.2 mi SW 11.5 mph - N/A   Scattered Clouds
3:50 PM 59.0 °F 44.6 °F 59% 30.24 in 6.2 mi SW 12.7 mph - N/A   Scattered Clouds
4:20 PM 59.0 °F 44.6 °F 59% 30.24 in 6.2 mi SW 13.8 mph - N/A   Scattered Clouds
4:50 PM 59.0 °F 44.6 °F 59% 30.24 in 6.2 mi SW 13.8 mph - N/A   Partly Cloudy
5:20 PM 59.0 °F 44.6 °F 59% 30.24 in 6.2 mi SW 12.7 mph - N/A   Partly Cloudy
5:50 PM 59.0 °F 44.6 °F 59% 30.24 in - SW 11.5 mph - N/A   Clear
6:20 PM 57.2 °F 44.6 °F 63% 30.24 in - SW 10.4 mph - N/A   Clear
6:50 PM 57.2 °F 44.6 °F 63% 30.24 in - SW 10.4 mph - N/A   Clear
7:20 PM 57.2 °F 44.6 °F 63% 30.24 in - SW 9.2 mph - N/A   Clear
7:50 PM 57.2 °F 44.6 °F 63% 30.24 in - SW 9.2 mph - N/A   Clear
8:20 PM 59.0 °F 44.6 °F 59% 30.24 in - SW 10.4 mph - N/A   Clear
8:50 PM 59.0 °F 46.4 °F 63% 30.24 in - SW 8.1 mph - N/A   Clear
9:00 PM 58 °F 46 °F 54% 30.25 in 6 mi SW 8.1 mph - -  
9:20 PM 59.0 °F 46.4 °F 63% 30.24 in - SW 8.1 mph - N/A   Clear
9:50 PM 57.2 °F 46.4 °F 67% 30.24 in - SW 6.9 mph - N/A   Clear
10:20 PM 57.2 °F 48.2 °F 72% 30.24 in - SW 6.9 mph - N/A   Clear
10:50 PM 57.2 °F 46.4 °F 67% 30.24 in - SSW 8.1 mph - N/A   Clear
11:20 PM 57.2 °F 46.4 °F 67% 30.24 in - SSW 9.2 mph - N/A   Clear
11:50 PM 59.0 °F 46.4 °F 63% 30.24 in 6.2 mi SSW 10.4 mph - N/A   Partly Cloudy